Regional Weather Roundup
Issued by NWS

Home | Current Version | Previous Version | Graphics & Text | Print | Product List | Glossary On
Versions: 1 2 3 4 5 6 7 8 9 10 11 12 13 14 15 16 17 18 19 20 21 22 23 24 25 26 27
000
ASUS45 KCYS 280010
RWRWY

WYOMING REGIONAL WEATHER ROUNDUP
NATIONAL WEATHER SERVICE CHEYENNE WY
600 PM MDT TUE JUN 27 2017

NOTE:  "FAIR" INDICATES FEW OR NO CLOUDS BELOW 12,000 FEET
WITH NO SIGNIFICANT WEATHER AND/OR OBSTRUCTIONS TO VISIBILITY.

WYZ001-280100-
YELLOWSTONE NATIONAL PARK

CITY           SKY/WX    TMP DP  RH WIND       PRES   REMARKS
LK YELLOWSTONE   N/A     51  46  83 CALM      30.12F
6HR MIN TEMP:  44; 6HR MAX TEMP:  55; 6HR PCP:  0.18;

W YELLOWSTONE  NOT AVBL

$$
WYZ002>013-054>058-071-098>099-280100-
NORTHERN WYOMING

CITY           SKY/WX    TMP DP  RH WIND       PRES   REMARKS
JACKSON        MOSUNNY   63  43  48 N14G21    30.05F
CODY           FAIR      67  41  38 W13G23    29.93S
GREYBULL       FAIR      74  43  32 N14       29.81F
6HR MIN TEMP:  62; 6HR MAX TEMP:  87; 6HR PCP:  0.05;

WORLAND        NOT AVBL
SHERIDAN       FAIR      75  50  41 NW8       29.79F
6HR MIN TEMP:  61; 6HR MAX TEMP:  81; 6HR PCP:  0.01;

BUFFALO        PTSUNNY   60  52  74 S3        29.86F
6HR MIN TEMP:  58; 6HR MAX TEMP:  76; 6HR PCP:  0.27;

GILLETTE       LGT RAIN  60  53  77 NW23G32   29.81S
6HR MIN TEMP:  53; 6HR MAX TEMP:  87; 6HR PCP:  0.58;

NEWCASTLE      FAIR      72  37  28 N10G18    29.69F

$$
WYZ014>020-022>026-101>103-280100-
CENTRAL WYOMING

CITY           SKY/WX    TMP DP  RH WIND       PRES   REMARKS
BIG PINEY      FAIR      73  35  25 NW18G26   30.05S
6HR MIN TEMP:  58; 6HR MAX TEMP:  77; 6HR PCP: TRACE;

PINEDALE       FAIR      64  41  42 N15G23    30.07S THUNDER
DUBOIS         FAIR      55  37  50 NW15G25   30.09F THUNDER
LANDER         FAIR      72  42  34 NW9       29.96R
6HR MIN TEMP:  64; 6HR MAX TEMP:  83; 6HR PCP: TRACE;

RIVERTON       FAIR      69  43  38 W9        29.94F
6HR MIN TEMP:  59; 6HR MAX TEMP:  83; 6HR PCP: TRACE;

CASPER         FAIR      67  45  45 NW14G22   29.91S
6HR MIN TEMP:  61; 6HR MAX TEMP:  86; 6HR PCP:  0.01;

DOUGLAS        PTSUNNY   74  44  34 NW38G46   29.86R
6HR MIN TEMP:  68; 6HR MAX TEMP:  91; 6HR PCP: TRACE;


$$
WYZ021-027>030-104>119-280100-
SOUTHERN WYOMING

CITY           SKY/WX    TMP DP  RH WIND       PRES   REMARKS
EVANSTON       FAIR      75  32  20 W20G31    30.08F
6HR MIN TEMP:  73; 6HR MAX TEMP:  78;

KEMMERER         N/A    N/A N/A N/A W25       30.07S
FORT BRIDGER   FAIR      78  20  11 W25G38    30.09S
ROCK SPRINGS   FAIR      79  16   9 W33G43    29.99S
6HR MIN TEMP:  72; 6HR MAX TEMP:  83; 6HR PCP: TRACE;

DIXON          FAIR      82  35  18 W15G24    29.99F
RAWLINS        FAIR      66  46  48 NW9       30.01F
6HR MIN TEMP:  60; 6HR MAX TEMP:  83; 6HR PCP:  0.02;

SARATOGA       FAIR      64  41  42 NE6G20    30.03S
LARAMIE        LGT RAIN  66  34  30 MISG      30.01F
6HR MIN TEMP:  55; 6HR MAX TEMP:  86; 6HR PCP: TRACE;

CHEYENNE       FAIR      82  35  18 NW15G25   29.89R
6HR MIN TEMP:  82; 6HR MAX TEMP:  92;

TORRINGTON     FAIR      87  43  21 N15       29.70S
6HR MIN TEMP:  74; 6HR MAX TEMP:  93; 6HR PCP:  0.01;

PINE BLUFFS    FAIR      81  46  30 N3        29.77F

$$




USA.gov is the U.S. government's official web portal to all federal, state and local government web resources and services.